Wind_Speed
17 16 13 15 14 13 11 10 9 11 18 20 26 31 32 33 35 27 26 24 22 18
18 15 15 15 14 13 12 12 15 11 16 21 24 26 31 26 24 21 18 17 23 21
17 15 15 15 14 14 12 14 15 18 15 18 22 24 27 27 23 24 23 20 18 21
17 16 15 15 14 12 10 11 12 17 20 21 22 24 25 26 28 28 25 23 23 26
16 15 16 14 11 10 10 10 12 13 17 22 25 27 28 25 26 27 27 25 23 21
18 15 14 12 9 13 13 9 9 11 12 15 22 26 28 26 23 30 27 23 21 22
13 15 15 11 7 9 9 8 9 8 9 11 15 20 24 25 23 23 22 25 25 24
13 13 13 10 6 12 10 7 6 9 8 9 10 9 13 17 22 21 23 24 27 27
16 17 17 16 16 19 16 15 14 13 11 10 7 5 12 12 6 9 14 14 13 6
20 22 20 18 19 19 18 15 16 14 12 13 9 5 2 10 6 4 2 3 1 3
23 23 23 26 24 23 21 21 21 19 18 19 22 14 7 6 9 12 12 9 6 5
21 25 27 28 24 24 28 26 28 26 24 24 22 18 15 14 19 22 23 22 19 14
23 24 32 34 22 24 29 27 29 28 27 26 28 24 20 20 22 26 25 26 27 27
26 26 30 32 20 19 25 28 25 23 25 27 25 24 22 19 19 20 20 22 24 25
Wind_Direction
182 188 188 184 185 183 179 183 192 197 196 182 184 186 186 184 190 192 192 190 192 194
181 179 185 177 173 174 184 195 195 183 191 189 185 179 177 176 170 167 183 191 207 210
177 179 183 179 181 184 184 179 186 191 187 185 187 176 176 181 184 195 202 207 221 225
175 167 171 172 180 188 187 186 182 184 196 195 188 187 181 184 189 197 202 218 229 234
169 162 161 171 171 179 182 175 183 182 194 202 200 199 195 190 195 196 202 212 223 227
161 166 163 167 175 177 166 167 163 172 184 194 198 197 202 200 202 206 209 215 220 225
158 164 159 161 155 145 147 157 172 168 172 194 200 209 215 211 213 214 220 225 231 233
104 130 133 134 118 149 147 159 170 180 176 170 167 173 186 207 216 215 223 226 232 240
89 101 100 104 104 108 109 104 108 106 115 114 109 179 201 194 162 217 217 223 225 217
81 82 88 91 98 95 93 100 92 82 76 60 38 36 214 232 208 189 105 79 96 240
82 77 79 83 79 86 91 86 84 77 69 68 66 74 86 122 125 99 79 67 50 25
79 86 80 76 76 78 82 75 74 70 69 69 65 66 75 93 97 90 77 69 60 58
82 82 87 86 81 82 81 78 71 66 63 64 69 67 76 89 91 83 77 70 63 59
73 74 82 87 86 89 84 78 74 71 64 63 64 71 84 81 83 87 82 73 67 65
Height
705 710 713 718 723 726 729 731 733 735 737 740 742 746 751 754 763 769 776 781 786 790
704 708 712 717 721 725 728 730 732 735 738 741 744 746 749 754 759 765 774 779 784 790
703 707 712 716 720 723 726 728 732 734 739 742 744 748 752 757 761 768 773 778 784 787
703 707 711 715 719 722 725 728 731 733 737 741 744 749 753 757 762 766 771 777 781 784
703 707 711 714 719 722 725 728 730 733 736 739 743 746 751 756 759 763 768 775 779 781
703 708 711 715 719 722 725 728 731 733 736 738 742 745 750 754 759 761 766 772 775 779
705 708 712 716 719 722 726 729 731 734 736 739 742 745 748 752 756 760 764 768 772 775
706 708 712 716 718 723 726 729 732 735 738 740 740 743 746 750 754 758 761 763 766 770
710 710 713 716 719 721 726 729 732 734 736 738 741 743 745 749 752 753 756 759 761 763
714 715 718 720 722 724 727 731 733 737 740 742 743 744 745 746 749 751 753 755 758 759
718 721 723 723 728 731 733 736 738 741 744 746 746 746 746 746 748 751 754 757 758 759
726 726 728 728 736 739 739 744 744 749 749 750 751 751 751 751 752 754 758 760 760 760
734 734 731 732 745 745 745 750 751 756 758 758 757 757 757 758 760 761 764 766 766 767
740 741 737 738 752 755 750 751 760 766 767 766 765 764 763 765 766 769 772 773 773 774